Home > Weather > Madison > Past weeks

Flag for U.S.A. Weather for the Past 2 Weeks in Madison, Wisconsin, U.S.A.

Now
6 °F

Sunny.


Feels Like: -3 °F
Forecast: -3 / 10 °F
Wind: 5 mph from Northwest

Location: Dane County Regional-Truax Field

Current Time: Feb 13, 2016 at 1:33:54 PM

Latest Report: Feb 13, 2016 at 12:53 PM


Visibility: 10 mi

Pressure: 30.62 "Hg

Humidity: N/A

Dew point: N/A

Location of MadisonLocation

Historic Weather in Madison — Graph

°F

Madison Temperature Yesterday

Maximum temperature yesterday: 17 °F (at 12:53 PM)
Minimum temperature yesterday: 2 °F (at 10:53 PM)
Average temperature yesterday: 12 °F

High & Low Weather Summary for the Past Weeks

 TemperatureHumidityPressure
High42 °F (Jan 30, 2:53 PM)100% (Feb 1, 8:53 AM)30.66 "Hg (Feb 1, 8:53 AM)
Low-3 °F (Feb 13, 5:53 AM)35% (Feb 11, 4:53 PM)29.46 "Hg (Feb 3, 4:53 AM)
Average24 °F73%29.99 "Hg
* Reported Jan 29 11:53 AM — Feb 13 11:53 AM, Madison, Weather by CustomWeather, © 2016

Note: Actual official high and low records may vary slightly from our data, if they occured in-between our weather recording intervals... More about our weather records

Advertising

Madison Weather History for the Previous 24 Hours

 ConditionsComfort  
Time TempWeatherWind HumidityBarometerVisibility
11:53 AM
Sat, Feb 13
5 °FSunny.7 mphN/A30.65 "Hg10 mi
10:53 AM3 °FSunny.7 mph51%30.66 "Hg10 mi
9:53 AM1 °FSunny.7 mph54%30.66 "Hg10 mi
8:53 AM-1 °FSunny.13 mph56%30.66 "Hg10 mi
7:53 AM-2 °FSunny.10 mph53%30.64 "Hg10 mi
6:53 AM-3 °FClear.7 mph55%30.63 "Hg10 mi
5:53 AM-3 °FClear.6 mph55%30.63 "Hg10 mi
4:53 AM-2 °FClear.6 mph53%30.62 "Hg10 mi
3:53 AM-1 °FClear.7 mph50%30.60 "Hg10 mi
2:53 AM0 °FClear.9 mph48%30.60 "Hg10 mi
1:53 AM0 °FClear.6 mph48%30.58 "Hg10 mi
12:53 AM1 °FClear.9 mph48%30.57 "Hg10 mi
11:53 PM
Fri, Feb 12
2 °FClear.8 mph46%30.56 "Hg10 mi
10:53 PM2 °FClear.5 mph49%30.55 "Hg10 mi
9:53 PM4 °FClear.13 mph45%30.53 "Hg10 mi
8:53 PM5 °FClear.14 mph47%30.49 "Hg10 mi
7:53 PM7 °FClear.12 mphN/A30.47 "Hg10 mi
6:53 PM8 °FClear.12 mph47%30.43 "Hg10 mi
5:53 PM10 °FClear.12 mph45%30.39 "Hg10 mi
4:53 PM12 °FPassing clouds.14 mph44%30.34 "Hg10 mi
3:53 PM14 °FPassing clouds.21 mph40%30.30 "Hg10 mi
2:53 PM16 °FPassing clouds.20 mph38%30.26 "Hg10 mi
1:53 PM17 °FScattered clouds.17 mph42%30.24 "Hg10 mi
Weather by CustomWeather, © 2016

See weather overviewHow to use our weather pages